User: anonymous   Login
Location: Unspecified
(0.0000°N, 0.0000°E)
Time: 00:34:39
(UTC+00:00)
Language:

USA 188 - Orbit

View from above orbital plane
View from above orbital plane
View from above satellite
View from above satellite

Ground track
Ground track

The orbit data is extracted from the following two-line orbital elements,

1 29241U 06024B   18282.02371397 0.00000000  00000-0  00000-0 0    06
2 29241   6.7103  55.5714 0006497  88.9565 271.1299  0.98860523    03
Epoch (UTC): 09 October 2018 00:34:08
Eccentricity: 0.0006497
inclination: 6.7103°
perigee height: 36159 km
apogee height: 36214 km
right ascension of ascending node: 55.5714°
argument of perigee: 88.9565°
revolutions per day: 0.98860523
mean anomaly at epoch: 271.1299°
orbit number at epoch: 0

The dashed part of the orbit path shows where the satellite is in the earth's shadow,  

DLR